User: anonymous   Login
Location: Unspecified
(0.0000°N, 0.0000°E)
Time: 15:17:49
(UTC+01:00)
Language:

Cosmos 1833 Rocket - Orbit

View from above orbital plane
View from above orbital plane
View from above satellite
View from above satellite

Ground track
Ground track

The orbit data is extracted from the following two-line orbital elements,

1 17590U 87027B   15024.52475512  .00000050  00000-0  49122-4 0  8793
2 17590 071.0023 191.7066 0005964 218.8414 141.2282 14.16673125440249
Epoch (UTC): 24 January 2015 12:35:38
Eccentricity: 0.0005964
inclination: 71.0023°
perigee height: 832 km
apogee height: 841 km
right ascension of ascending node: 191.7066°
argument of perigee: 218.8414°
revolutions per day: 14.16673125
mean anomaly at epoch: 141.2282°
orbit number at epoch: 44024

The dashed part of the orbit path shows where the satellite is in the earth's shadow,  

DLR